Gatesville, TX

9:42 PM CDT on August 29, 2016 (GMT -0500)
Gatesville

Weather History for KGOP - November, 2012

Change the Weather History Date:

Tuesday, November 20, 2012

  Actual Average (KHLR) Record (KHLR)
Temperature  
Mean Temperature 66 °F -  
Max Temperature 82 °F 66 °F 89 °F (1996)
Min Temperature 51 °F 49 °F 37 °F (2001)
Cooling Degree Days 2    
Growing Degree Days 16 (Base 50)    
Moisture  
Dew Point 52 °F    
Average Humidity 62    
Maximum Humidity 100    
Minimum Humidity 25    
Precipitation  
Precipitation 0.00 in - - ()
Sea Level Pressure  
Sea Level Pressure 30.19 in    
Wind  
Wind Speed 2 mph (NE)    
Max Wind Speed 9 mph    
Max Gust Speed -    
Visibility 9 miles    
Events      
Averages and records for this station are not official NWS values.
T = Trace of Precipitation, MM = Missing Value Source: NWS Daily Summary

Daily Weather History Graph

Daily Weather History Graph

Search for Another Location

Airport or City:

Trip Planner

Search our weather history database for the weather conditions in past years. The results will help you decide how hot, cold, wet, or windy it might be!

Date:

Astronomy

Nov. 20, 2012 Rise Set
Actual Time 7:03 AM CST 5:30 PM CST
Civil Twilight 6:37 AM CST 5:56 PM CST
Nautical Twilight 6:08 AM CST 6:25 PM CST
Astronomical Twilight 5:39 AM CST 6:54 PM CST
Moon 12:51 PM CST (11/20) No Moon Set
Length of Visible Light 11h 18m
Length of Day
10h 26m
First Quarter, 51% of the Moon is Illuminated
Nov 20
First Quarter
Nov 28
Full
Dec 6
Last Quarter
Dec 13
New
Dec 19
First Quarter

Hourly Weather History & Observations

Time (CST) Temp. Dew Point Humidity Pressure Visibility Wind Dir Wind Speed Gust Speed Precip Events Conditions
12:15 AM 60.8 °F 55.4 °F 82% 30.18 in 10.0 mi SSW 4.6 mph - N/A   Clear
12:35 AM 62.6 °F 55.4 °F 77% 30.18 in 10.0 mi Calm Calm - N/A   Clear
12:55 AM 60.8 °F 55.4 °F 82% 30.18 in 10.0 mi Calm Calm - N/A   Clear
1:15 AM 57.2 °F 53.6 °F 88% 30.18 in 10.0 mi Calm Calm - N/A   Clear
1:35 AM 60.8 °F 55.4 °F 82% 30.18 in 10.0 mi Calm Calm - N/A   Partly Cloudy
1:55 AM 59.0 °F 53.6 °F 82% 30.18 in 10.0 mi Calm Calm - N/A   Partly Cloudy
2:15 AM 60.8 °F 55.4 °F 82% 30.17 in 10.0 mi Calm Calm - N/A   Clear
2:35 AM 59.0 °F 53.6 °F 82% 30.18 in 10.0 mi Calm Calm - N/A   Partly Cloudy
6:15 AM 51.8 °F 51.8 °F 100% 30.18 in 6.0 mi Calm Calm - N/A   Clear
6:35 AM 51.8 °F 51.8 °F 100% 30.18 in 5.0 mi Calm Calm - N/A   Clear
6:55 AM 53.6 °F 53.6 °F 100% 30.19 in 5.0 mi SSE 3.5 mph - N/A   Clear
7:15 AM 53.6 °F 53.6 °F 100% 30.19 in 5.0 mi Calm Calm - N/A   Clear
7:35 AM 53.6 °F 53.6 °F 100% 30.20 in 3.0 mi Calm Calm - N/A   Clear
7:55 AM 55.4 °F 55.4 °F 100% 30.20 in 7.0 mi SW 3.5 mph - N/A   Clear
8:15 AM 59.0 °F 55.4 °F 88% 30.21 in 10.0 mi Calm Calm - N/A   Clear
8:35 AM 57.2 °F 55.4 °F 94% 30.22 in 10.0 mi Calm Calm - N/A   Clear
8:55 AM 60.8 °F 55.4 °F 82% 30.22 in 10.0 mi Calm Calm - N/A   Clear
9:15 AM 62.6 °F 55.4 °F 77% 30.22 in 10.0 mi Calm Calm - N/A   Clear
9:35 AM 66.2 °F 55.4 °F 68% 30.22 in 10.0 mi Calm Calm - N/A   Clear
9:55 AM 68.0 °F 57.2 °F 68% 30.22 in 10.0 mi West 4.6 mph - N/A   Clear
10:15 AM 71.6 °F 57.2 °F 60% 30.22 in 10.0 mi WNW 8.1 mph - N/A   Clear
10:35 AM 73.4 °F 57.2 °F 57% 30.22 in 10.0 mi West 5.8 mph - N/A   Clear
10:55 AM 75.2 °F 57.2 °F 53% 30.22 in 10.0 mi WNW 5.8 mph - N/A   Clear
11:15 AM 77.0 °F 55.4 °F 47% 30.21 in 10.0 mi NW 3.5 mph - N/A   Clear
11:35 AM 78.8 °F 55.4 °F 44% 30.20 in 10.0 mi North 8.1 mph - N/A   Clear
11:55 AM 78.8 °F 53.6 °F 42% 30.20 in 10.0 mi NW 5.8 mph - N/A   Clear
12:15 PM 80.6 °F 51.8 °F 37% 30.19 in 10.0 mi NNW 4.6 mph - N/A   Clear
12:35 PM 80.6 °F 50.0 °F 34% 30.18 in 10.0 mi NNE 8.1 mph - N/A   Clear
12:55 PM 80.6 °F 46.4 °F 30% 30.17 in 10.0 mi Calm Calm - N/A   Clear
1:15 PM 80.6 °F 48.2 °F 32% 30.16 in 10.0 mi East 4.6 mph - N/A   Clear
1:35 PM 80.6 °F 42.8 °F 26% 30.15 in 10.0 mi Calm Calm - N/A   Clear
1:55 PM 82.4 °F 44.6 °F 26% 30.14 in 10.0 mi Calm Calm - N/A   Clear
2:15 PM 82.4 °F 44.6 °F 26% 30.14 in 10.0 mi North 5.8 mph - N/A   Partly Cloudy
2:35 PM 82.4 °F 42.8 °F 25% 30.14 in 10.0 mi East 4.6 mph - N/A   Scattered Clouds
2:55 PM 80.6 °F 51.8 °F 37% 30.13 in 10.0 mi East 6.9 mph - N/A   Scattered Clouds
3:15 PM 80.6 °F 51.8 °F 37% 30.13 in 10.0 mi ENE 9.2 mph - N/A   Scattered Clouds
3:35 PM 80.6 °F 51.8 °F 37% 30.14 in 10.0 mi East 5.8 mph - N/A   Scattered Clouds
3:55 PM 80.6 °F 51.8 °F 37% 30.14 in 10.0 mi ENE 5.8 mph - N/A   Clear
4:15 PM 78.8 °F 50.0 °F 36% 30.14 in 10.0 mi East 5.8 mph - N/A   Partly Cloudy
4:35 PM 78.8 °F 51.8 °F 39% 30.15 in 10.0 mi East 8.1 mph - N/A   Partly Cloudy
4:55 PM 78.8 °F 51.8 °F 39% 30.15 in 10.0 mi East 6.9 mph - N/A   Clear
5:15 PM 75.2 °F 51.8 °F 44% 30.16 in 10.0 mi East 5.8 mph - N/A   Clear
5:35 PM 73.4 °F 51.8 °F 47% 30.16 in 6.0 mi East 5.8 mph - N/A   Haze
5:55 PM 73.4 °F 51.8 °F 47% 30.17 in 10.0 mi East 4.6 mph - N/A   Clear
6:15 PM 71.6 °F 51.8 °F 50% 30.18 in 10.0 mi Calm Calm - N/A   Clear
6:35 PM 69.8 °F 51.8 °F 53% 30.18 in 9.0 mi Calm Calm - N/A   Clear
6:55 PM 68.0 °F 51.8 °F 56% 30.19 in 9.0 mi Calm Calm - N/A   Clear
7:15 PM 66.2 °F 51.8 °F 60% 30.19 in 10.0 mi Calm Calm - N/A   Clear
7:35 PM 66.2 °F 51.8 °F 60% 30.20 in 10.0 mi Calm Calm - N/A   Clear
7:55 PM 66.2 °F 51.8 °F 60% 30.21 in 10.0 mi Calm Calm - N/A   Clear
8:15 PM 64.4 °F 51.8 °F 64% 30.21 in 10.0 mi Calm Calm - N/A   Clear
8:35 PM 64.4 °F 51.8 °F 64% 30.22 in 10.0 mi Calm Calm - N/A   Clear
8:55 PM 64.4 °F 51.8 °F 64% 30.22 in 10.0 mi SSE 3.5 mph - N/A   Clear
9:15 PM 60.8 °F 48.2 °F 63% 30.22 in 10.0 mi Calm Calm - N/A   Clear
9:35 PM 62.6 °F 53.6 °F 72% 30.22 in 8.0 mi Calm Calm - N/A   Clear
9:55 PM 59.0 °F 48.2 °F 67% 30.22 in 10.0 mi Calm Calm - N/A   Clear
10:15 PM 57.2 °F 48.2 °F 72% 30.22 in 10.0 mi Calm Calm - N/A   Clear
10:35 PM 55.4 °F 46.4 °F 72% 30.22 in 10.0 mi Calm Calm - N/A   Clear
10:55 PM 55.4 °F 48.2 °F 77% 30.22 in 10.0 mi Calm Calm - N/A   Clear
11:15 PM 57.2 °F 48.2 °F 72% 30.23 in 10.0 mi Calm Calm - N/A   Clear
11:35 PM 55.4 °F 48.2 °F 77% 30.23 in 10.0 mi Calm Calm - N/A   Clear
11:55 PM 55.4 °F 48.2 °F 77% 30.22 in 10.0 mi Calm Calm - N/A   Clear